Weather History for KPGA - February, 2013

Change the Weather History Date:

Tuesday, February 5, 2013

  Actual Average Record
Temperature  
Mean Temperature 42 °F -  
Max Temperature 53 °F 46 °F 61 °F (2015)
Min Temperature 32 °F 26 °F 9 °F (1982)
Degree Days  
Heating Degree Days 22    
Moisture  
Dew Point 28 °F    
Average Humidity 59    
Maximum Humidity 82    
Minimum Humidity 24    
Precipitation  
Precipitation 0.00 in - - ()
Sea Level Pressure  
Sea Level Pressure 30.04 in    
Wind  
Wind Speed 1 mph (North)    
Max Wind Speed 7 mph    
Max Gust Speed -    
Visibility 9 miles    
Events      
Averages and records for this station are not official NWS values.
T = Trace of Precipitation, MM = Missing Value Source: NWS Daily Summary

Daily Weather History Graph

Daily Weather History Graph

Search for Another Location

Airport or City:

Trip Planner

Search our weather history database for the weather conditions in past years. The results will help you decide how hot, cold, wet, or windy it might be!

Date:

Astronomy

Feb. 05, 2013 Rise Set
Actual Time 7:24 AM MST 5:55 PM MST
Civil Twilight 6:57 AM MST 6:22 PM MST
Nautical Twilight 6:26 AM MST 6:53 PM MST
Astronomical Twilight 5:56 AM MST 7:24 PM MST
Moon 3:07 AM MST (2/5) 1:19 PM MST (2/5)
Length of Visible Light 11h 25m
Length of Day
10h 31m
Waning Crescent, 26% of the Moon is Illuminated
Feb 5
Waning Crescent
Feb 10
New
Feb 17
First Quarter
Feb 25
Full
Mar 4
Last Quarter

Hourly Weather History & Observations

Time (MST) Temp. Windchill Dew Point Humidity Pressure Visibility Wind Dir Wind Speed Gust Speed Precip Events Conditions
12:53 AM 36.0 °F - 28.0 °F 73% 30.09 in 10.0 mi Calm Calm - N/A   Clear
1:53 AM 35.1 °F - 28.0 °F 76% 30.09 in 10.0 mi Calm Calm - N/A   Clear
2:53 AM 35.1 °F - 28.0 °F 76% 30.09 in 9.0 mi Calm Calm - N/A   Clear
3:53 AM 33.1 °F 30.0 °F 28.0 °F 82% 30.10 in 7.0 mi WSW 3.5 mph - N/A   Clear
4:53 AM 34.0 °F - 27.0 °F 75% 30.10 in 9.0 mi Calm Calm - N/A   Clear
5:53 AM 33.1 °F - 27.0 °F 78% 30.11 in 10.0 mi Calm Calm - N/A   Clear
6:53 AM 32.0 °F 28.7 °F 26.1 °F 79% 30.13 in 9.0 mi South 3.5 mph - N/A   Clear
7:53 AM 32.0 °F - 26.1 °F 79% 30.15 in 8.0 mi Calm Calm - N/A   Clear
8:53 AM 37.9 °F - 28.0 °F 68% 30.14 in 10.0 mi Calm Calm - N/A   Clear
9:53 AM 39.0 °F 35.7 °F 28.9 °F 67% 30.14 in 10.0 mi WNW 4.6 mph - N/A   Clear
10:53 AM 43.0 °F - 30.0 °F 60% 30.13 in 10.0 mi Calm Calm - N/A   Clear
11:53 AM 46.0 °F 43.9 °F 30.0 °F 54% 30.11 in 10.0 mi NNE 4.6 mph - N/A   Clear
12:53 PM 48.0 °F - 30.9 °F 52% 30.06 in 10.0 mi Calm Calm - N/A   Clear
1:53 PM 50.0 °F - 30.0 °F 46% 30.01 in 10.0 mi Variable 4.6 mph - N/A   Clear
2:53 PM 51.1 °F - 28.0 °F 41% 29.99 in 10.0 mi NE 5.8 mph - N/A   Clear
3:53 PM 53.1 °F - 27.0 °F 37% 29.97 in 10.0 mi NE 4.6 mph - N/A   Clear
4:53 PM 53.1 °F - 27.0 °F 37% 29.96 in 10.0 mi NNE 3.5 mph - N/A   Clear
5:53 PM 50.0 °F - 26.1 °F 39% 29.96 in 10.0 mi Calm Calm - N/A   Clear
6:53 PM 46.0 °F - 26.1 °F 46% 29.97 in 10.0 mi Calm Calm - N/A   Clear
7:53 PM 44.1 °F - 27.0 °F 51% 29.98 in 10.0 mi Calm Calm - N/A   Clear
8:53 PM 43.0 °F 38.8 °F 28.9 °F 58% 29.95 in 10.0 mi East 6.9 mph - N/A   Clear
9:53 PM 41.0 °F - 28.0 °F 60% 29.95 in 10.0 mi Calm Calm - N/A   Clear
10:53 PM 39.9 °F 37.8 °F 28.0 °F 63% 29.94 in 6.0 mi WSW 3.5 mph - N/A   Haze
11:53 PM 41.0 °F - 28.0 °F 60% 29.92 in 10.0 mi Calm Calm - N/A   Clear